Home   Weather   Mali i Kaçivelit   Past weeks
Flag for Albania

Past Weather in Mali i Kaçivelit, Albania — Yesterday and Last 2 Weeks

Now
73 °F

Passing clouds.


Feels Like: 73 °F
Forecast: 91 / 65 °F
Wind: 3 mph from Southeast

Location: Tirana Airport

Current Time: Jul 4, 2020 at 2:04:55 am

Latest Report: Jul 4, 2020 at 1:20 am


Visibility: N/A

Pressure: 29.86 "Hg

Humidity: 83%

Dew Point: 68 °F

Location of Mali i KaçivelitLocation

Past Weather in Mali i Kaçivelit — Graph

°F

Mali i Kaçivelit Temperature Yesterday

Maximum temperature yesterday: 95 °F (at 1:50 pm)
Minimum temperature yesterday: 68 °F (at 4:50 am)
Average temperature yesterday: 81 °F

High & Low Weather Summary for the Past Weeks

 TemperatureHumidityPressure
High95 °F (Jul 2, 12:20 pm)94% (Jun 19, 3:50 am)30.09 "Hg (Jun 19, 3:50 am)
Low59 °F (Jun 19, 3:50 am)36% (Jul 2, 11:20 am)29.77 "Hg (Jun 21, 1:20 pm)
Average76 °F68%29.91 "Hg
* Reported Jun 19 12:20 am — Jul 4 12:50 am, Mali i Kaçivelit. Weather by CustomWeather, © 2020

Note: Actual official high and low records may vary slightly from our data, if they occured in-between our weather recording intervals... More about our weather records

Mali i Kaçivelit Weather History for the Previous 24 Hours

Scroll right to see more
 ConditionsComfort  
Time TempWeatherWind HumidityBarometerVisibility
12:50 am
Sat, Jul 4
73 °FClear.1 mph83%29.86 "Hg10 mi
12:20 am73 °FClear.2 mph83%29.86 "Hg10 mi
11:50 pm
Fri, Jul 3
75 °FClear.6 mph83%29.86 "Hg10 mi
11:20 pm75 °FClear.1 mph83%29.86 "Hg10 mi
10:50 pm73 °FClear.2 mph89%29.86 "Hg10 mi
10:20 pm73 °FClear.6 mph83%29.86 "Hg10 mi
9:50 pm79 °FClear.3 mph70%29.83 "Hg10 mi
9:20 pm79 °FClear.2 mph70%29.83 "Hg10 mi
8:50 pm77 °FClear.2 mph74%29.83 "Hg10 mi
8:20 pm81 °FClear.3 mph58%29.80 "Hg10 mi
7:50 pm84 °FSunny.6 mph48%29.80 "Hg10 mi
7:20 pm86 °FSunny.7 mph49%29.80 "Hg10 mi
6:50 pm88 °FSunny.7 mph46%29.80 "Hg10 mi
6:20 pm88 °FSunny.8 mph43%29.80 "Hg10 mi
5:50 pm90 °FSunny.8 mph49%29.80 "Hg10 mi
5:20 pm90 °FSunny.8 mph52%29.77 "Hg10 mi
4:50 pm91 °FPassing clouds.8 mph52%29.77 "HgN/A
4:20 pm91 °FSunny.10 mph49%29.77 "Hg10 mi
3:50 pm93 °FSunny.9 mph49%29.77 "Hg10 mi
2:50 pm95 °FPassing clouds.8 mph47%29.77 "HgN/A
2:20 pm95 °FPassing clouds.7 mph44%29.77 "HgN/A
1:50 pm95 °FPassing clouds.8 mph53%29.80 "HgN/A
1:20 pm91 °FPassing clouds.8 mph52%29.80 "HgN/A
12:50 pm91 °FPassing clouds.8 mph52%29.80 "HgN/A
12:20 pm91 °FPassing clouds.6 mph46%29.80 "HgN/A
11:50 am91 °FSunny.2 mph44%29.80 "Hg10 mi
11:20 am91 °FPassing clouds.3 mph41%29.80 "HgN/A
10:50 am91 °FSunny.2 mph36%29.80 "Hg10 mi
10:20 am90 °FSunny.2 mph46%29.80 "Hg10 mi
9:50 am88 °FSunny.1 mph49%29.80 "Hg10 mi
9:20 am84 °FSunny.1 mph51%29.80 "Hg10 mi
8:50 am82 °FSunny.1 mph58%29.80 "Hg10 mi
8:20 am81 °FSunny.2 mph62%29.80 "Hg10 mi
7:50 am77 °FSunny.2 mph65%29.80 "Hg10 mi
7:20 am73 °FSunny.5 mph74%29.80 "Hg10 mi
6:50 am73 °FSunny.2 mph74%29.80 "Hg10 mi
6:20 am70 °FSunny.3 mph88%29.80 "Hg10 mi
5:50 am68 °FPassing clouds.3 mph88%29.80 "HgN/A
5:20 am68 °FSunny.1 mph88%29.80 "Hg10 mi
4:50 am68 °FClear.3 mph88%29.80 "Hg10 mi
4:20 am70 °FClear.1 mph83%29.80 "Hg10 mi
3:50 am70 °FClear.2 mph83%29.80 "Hg10 mi
3:20 am70 °FClear.5 mph88%29.80 "Hg10 mi
2:50 am70 °FClear.2 mph88%29.80 "Hg10 mi
2:20 am70 °FClear.5 mph88%29.80 "Hg10 mi
Weather by CustomWeather, © 2020

See weather overview